Time,TemperatureF,DewpointF,PressureIn,WindDirection,WindDirectionDegrees,WindSpeedMPH,WindSpeedGustMPH,Humidity,HourlyPrecipIn,Conditions,Clouds,dailyrainin,SolarRadiationWatts/m^2,SoftwareType,DateUTC
2013-06-12 00:07:00,63.5,63.0,29.68,SSW,209,2.0,4.0,97,0.00,,,0.00,0,weatherlink.com 1.10,2013-06-12 04:07:00,
2013-06-12 00:22:00,63.3,63.0,29.68,South,180,1.0,3.0,97,0.00,,,0.00,0,weatherlink.com 1.10,2013-06-12 04:22:00,
2013-06-12 00:37:00,62.9,62.0,29.68,WSW,240,0.0,4.0,96,0.00,,,0.00,0,weatherlink.com 1.10,2013-06-12 04:37:00,
2013-06-12 00:52:00,62.2,61.0,29.68,SSE,159,0.0,2.0,96,0.00,,,0.00,0,weatherlink.com 1.10,2013-06-12 04:52:00,
2013-06-12 01:07:00,61.6,61.0,29.68,South,186,0.0,2.0,96,0.00,,,0.00,0,weatherlink.com 1.10,2013-06-12 05:07:00,
2013-06-12 01:22:00,61.0,60.0,29.68,South,186,0.0,1.0,96,0.00,,,0.00,0,weatherlink.com 1.10,2013-06-12 05:22:00,
2013-06-12 01:37:00,60.6,60.0,29.67,SSW,203,1.0,4.0,97,0.00,,,0.00,0,weatherlink.com 1.10,2013-06-12 05:37:00,
2013-06-12 01:52:00,60.3,59.0,29.67,ESE,103,0.0,4.0,96,0.00,,,0.00,0,weatherlink.com 1.10,2013-06-12 05:52:00,
2013-06-12 02:07:00,59.9,59.0,29.67,South,179,1.0,3.0,96,0.00,,,0.00,0,weatherlink.com 1.10,2013-06-12 06:07:00,
2013-06-12 02:22:00,59.4,58.0,29.67,WSW,251,0.0,3.0,96,0.00,,,0.00,0,weatherlink.com 1.10,2013-06-12 06:22:00,
2013-06-12 02:37:00,58.8,58.0,29.67,WSW,251,0.0,0.0,96,0.00,,,0.00,0,weatherlink.com 1.10,2013-06-12 06:37:00,
2013-06-12 02:52:00,58.5,58.0,29.67,WSW,247,0.0,2.0,97,0.00,,,0.00,0,weatherlink.com 1.10,2013-06-12 06:52:00,
2013-06-12 03:07:00,58.4,58.0,29.67,SSW,202,1.0,1.0,97,0.00,,,0.00,0,weatherlink.com 1.10,2013-06-12 07:07:00,
2013-06-12 03:22:00,58.7,58.0,29.67,SW,225,0.0,2.0,97,0.00,,,0.00,0,weatherlink.com 1.10,2013-06-12 07:22:00,
2013-06-12 03:37:00,58.9,58.0,29.67,SW,225,0.0,1.0,98,0.00,,,0.00,0,weatherlink.com 1.10,2013-06-12 07:37:00,
2013-06-12 03:52:00,58.8,58.0,29.66,SW,216,1.0,4.0,97,0.00,,,0.00,0,weatherlink.com 1.10,2013-06-12 07:52:00,
2013-06-12 04:07:00,58.6,58.0,29.66,South,177,1.0,3.0,97,0.00,,,0.00,0,weatherlink.com 1.10,2013-06-12 08:07:00,
2013-06-12 04:22:00,58.1,57.0,29.67,SSE,150,0.0,2.0,97,0.00,,,0.00,0,weatherlink.com 1.10,2013-06-12 08:22:00,
2013-06-12 04:37:00,57.7,57.0,29.68,SSE,150,0.0,2.0,97,0.00,,,0.00,0,weatherlink.com 1.10,2013-06-12 08:37:00,
2013-06-12 04:52:00,57.2,56.0,29.68,SSW,198,2.0,3.0,97,0.00,,,0.00,0,weatherlink.com 1.10,2013-06-12 08:52:00,
2013-06-12 05:07:00,56.9,56.0,29.69,South,185,0.0,3.0,96,0.00,,,0.00,0,weatherlink.com 1.10,2013-06-12 09:07:00,
2013-06-12 05:22:00,56.9,56.0,29.70,SSW,213,1.0,3.0,95,0.00,,,0.00,0,weatherlink.com 1.10,2013-06-12 09:22:00,
2013-06-12 05:37:00,56.9,56.0,29.70,West,262,1.0,6.0,95,0.00,,,0.00,0,weatherlink.com 1.10,2013-06-12 09:37:00,
2013-06-12 05:53:00,57.0,55.0,29.71,SW,225,0.0,4.0,94,0.00,,,0.00,7,weatherlink.com 1.10,2013-06-12 09:53:00,
2013-06-12 06:08:00,56.9,55.0,29.71,SSW,200,0.0,4.0,94,0.00,,,0.00,14,weatherlink.com 1.10,2013-06-12 10:08:00,
2013-06-12 06:23:00,57.3,56.0,29.72,SSW,198,2.0,4.0,94,0.00,,,0.00,25,weatherlink.com 1.10,2013-06-12 10:23:00,
2013-06-12 06:38:00,58.0,56.0,29.72,WSW,250,2.0,5.0,93,0.00,,,0.00,46,weatherlink.com 1.10,2013-06-12 10:38:00,
2013-06-12 06:53:00,58.7,56.0,29.72,West,272,0.0,3.0,92,0.00,,,0.00,33,weatherlink.com 1.10,2013-06-12 10:53:00,
2013-06-12 07:08:00,59.1,57.0,29.72,South,190,1.0,7.0,91,0.00,,,0.00,19,weatherlink.com 1.10,2013-06-12 11:08:00,
2013-06-12 07:23:00,59.6,57.0,29.71,West,273,3.0,7.0,90,0.00,,,0.00,21,weatherlink.com 1.10,2013-06-12 11:23:00,
2013-06-12 07:38:00,60.0,57.0,29.72,NW,308,0.0,5.0,89,0.00,,,0.00,32,weatherlink.com 1.10,2013-06-12 11:38:00,
2013-06-12 07:53:00,60.8,57.0,29.72,South,190,2.0,7.0,86,0.00,,,0.00,46,weatherlink.com 1.10,2013-06-12 11:53:00,
2013-06-12 08:08:00,61.7,58.0,29.73,NNW,329,3.0,5.0,86,0.00,,,0.00,102,weatherlink.com 1.10,2013-06-12 12:08:00,
2013-06-12 08:23:00,61.8,57.0,29.73,NW,304,1.0,7.0,84,0.00,,,0.00,123,weatherlink.com 1.10,2013-06-12 12:23:00,
2013-06-12 08:38:00,62.4,58.0,29.74,WSW,239,5.0,7.0,84,0.00,,,0.00,153,weatherlink.com 1.10,2013-06-12 12:38:00,
2013-06-12 08:53:00,63.4,58.0,29.74,WSW,251,2.0,9.0,82,0.00,,,0.00,107,weatherlink.com 1.10,2013-06-12 12:53:00,
2013-06-12 09:08:00,64.2,60.0,29.73,WNW,283,2.0,6.0,85,0.00,,,0.00,176,weatherlink.com 1.10,2013-06-12 13:08:00,
2013-06-12 09:23:00,65.8,58.0,29.73,SW,230,4.0,7.0,76,0.00,,,0.00,47,weatherlink.com 1.10,2013-06-12 13:23:00,
2013-06-12 09:38:00,66.5,59.0,29.73,WNW,284,3.0,8.0,76,0.00,,,0.00,155,weatherlink.com 1.10,2013-06-12 13:38:00,
2013-06-12 09:53:00,67.5,59.0,29.73,ENE,71,5.0,8.0,75,0.00,,,0.00,715,weatherlink.com 1.10,2013-06-12 13:53:00,
2013-06-12 10:08:00,68.7,61.0,29.73,West,262,6.0,8.0,75,0.00,,,0.00,844,weatherlink.com 1.10,2013-06-12 14:08:00,
2013-06-12 10:23:00,68.3,59.0,29.74,NE,48,4.0,5.0,71,0.00,,,0.00,171,weatherlink.com 1.10,2013-06-12 14:23:00,
2013-06-12 10:38:00,68.5,59.0,29.74,SSW,200,1.0,8.0,71,0.00,,,0.00,870,weatherlink.com 1.10,2013-06-12 14:38:00,
2013-06-12 10:53:00,70.8,61.0,29.74,NNE,22,4.0,7.0,70,0.00,,,0.00,954,weatherlink.com 1.10,2013-06-12 14:53:00,
2013-06-12 11:08:00,71.0,57.0,29.74,East,97,3.0,8.0,62,0.00,,,0.00,276,weatherlink.com 1.10,2013-06-12 15:08:00,
2013-06-12 11:23:00,70.9,61.0,29.75,NNW,332,1.0,10.0,70,0.00,,,0.00,962,weatherlink.com 1.10,2013-06-12 15:23:00,
2013-06-12 11:38:00,72.2,58.0,29.75,East,95,1.0,17.0,62,0.00,,,0.00,1055,weatherlink.com 1.10,2013-06-12 15:38:00,
2013-06-12 11:53:00,71.8,57.0,29.75,SE,128,0.0,7.0,61,0.00,,,0.00,213,weatherlink.com 1.10,2013-06-12 15:53:00,
2013-06-12 12:08:00,71.1,57.0,29.75,West,273,5.0,8.0,62,0.00,,,0.00,211,weatherlink.com 1.10,2013-06-12 16:08:00,
2013-06-12 12:23:00,70.0,57.0,29.75,NW,314,2.0,10.0,64,0.00,,,0.00,473,weatherlink.com 1.10,2013-06-12 16:23:00,
2013-06-12 12:38:00,70.5,57.0,29.75,East,91,2.0,10.0,62,0.00,,,0.00,183,weatherlink.com 1.10,2013-06-12 16:38:00,
2013-06-12 12:53:00,70.8,59.0,29.75,East,93,7.0,11.0,67,0.00,,,0.00,1035,weatherlink.com 1.10,2013-06-12 16:53:00,
2013-06-12 13:08:00,73.0,62.0,29.75,SSW,211,1.0,8.0,68,0.00,,,0.00,777,weatherlink.com 1.10,2013-06-12 17:08:00,
2013-06-12 13:23:00,70.7,56.0,29.76,NNW,327,2.0,12.0,60,0.00,,,0.00,302,weatherlink.com 1.10,2013-06-12 17:23:00,
2013-06-12 13:38:00,72.1,57.0,29.76,West,261,2.0,10.0,60,0.00,,,0.00,288,weatherlink.com 1.10,2013-06-12 17:38:00,
2013-06-12 13:53:00,72.9,57.0,29.76,West,267,1.0,8.0,58,0.00,,,0.00,255,weatherlink.com 1.10,2013-06-12 17:53:00,
2013-06-12 14:08:00,73.2,60.0,29.76,ENE,76,0.0,9.0,63,0.00,,,0.00,227,weatherlink.com 1.10,2013-06-12 18:08:00,
2013-06-12 14:23:00,72.8,57.0,29.77,NW,311,0.0,10.0,58,0.00,,,0.00,199,weatherlink.com 1.10,2013-06-12 18:23:00,
2013-06-12 14:38:00,72.9,59.0,29.77,WSW,253,1.0,9.0,61,0.00,,,0.00,1021,weatherlink.com 1.10,2013-06-12 18:38:00,
2013-06-12 14:53:00,73.2,58.0,29.77,WNW,285,0.0,5.0,60,0.00,,,0.00,185,weatherlink.com 1.10,2013-06-12 18:53:00,
2013-06-12 15:08:00,72.2,56.0,29.77,NW,308,3.0,6.0,57,0.00,,,0.00,229,weatherlink.com 1.10,2013-06-12 19:08:00,
2013-06-12 15:23:00,72.0,59.0,29.78,West,264,2.0,8.0,64,0.00,,,0.00,202,weatherlink.com 1.10,2013-06-12 19:23:00,
2013-06-12 15:38:00,73.5,57.0,29.78,WSW,239,1.0,7.0,57,0.00,,,0.00,777,weatherlink.com 1.10,2013-06-12 19:38:00,
2013-06-12 15:54:00,73.8,55.0,29.77,South,186,2.0,10.0,53,0.00,,,0.00,248,weatherlink.com 1.10,2013-06-12 19:54:00,
2013-06-12 16:09:00,72.6,56.0,29.78,WNW,288,5.0,10.0,57,0.00,,,0.00,387,weatherlink.com 1.10,2013-06-12 20:09:00,
2013-06-12 16:24:00,73.1,57.0,29.78,NNW,333,0.0,8.0,57,0.00,,,0.00,241,weatherlink.com 1.10,2013-06-12 20:24:00,
2013-06-12 16:39:00,73.8,57.0,29.78,NW,306,2.0,8.0,55,0.00,,,0.00,642,weatherlink.com 1.10,2013-06-12 20:39:00,
2013-06-12 16:54:00,71.8,55.0,29.78,SE,140,1.0,9.0,56,0.00,,,0.00,88,weatherlink.com 1.10,2013-06-12 20:54:00,
2013-06-12 17:09:00,70.6,56.0,29.79,SSE,163,2.0,5.0,60,0.00,,,0.00,86,weatherlink.com 1.10,2013-06-12 21:09:00,
2013-06-12 17:24:00,71.9,57.0,29.79,North,5,2.0,6.0,60,0.00,,,0.00,506,weatherlink.com 1.10,2013-06-12 21:24:00,
2013-06-12 17:39:00,72.6,56.0,29.80,West,265,5.0,11.0,57,0.00,,,0.00,54,weatherlink.com 1.10,2013-06-12 21:39:00,
2013-06-12 17:54:00,70.3,56.0,29.81,NE,53,4.0,7.0,60,0.00,,,0.00,77,weatherlink.com 1.10,2013-06-12 21:54:00,
2013-06-12 18:09:00,69.4,57.0,29.81,North,355,0.0,4.0,64,0.00,,,0.00,63,weatherlink.com 1.10,2013-06-12 22:09:00,
2013-06-12 18:24:00,68.8,56.0,29.82,NNE,33,1.0,5.0,63,0.00,,,0.00,63,weatherlink.com 1.10,2013-06-12 22:24:00,
2013-06-12 18:39:00,68.6,56.0,29.82,NNE,26,0.0,6.0,65,0.00,,,0.00,67,weatherlink.com 1.10,2013-06-12 22:39:00,
2013-06-12 18:54:00,68.2,57.0,29.82,East,88,0.0,2.0,67,0.00,,,0.00,39,weatherlink.com 1.10,2013-06-12 22:54:00,
2013-06-12 19:09:00,67.5,56.0,29.83,East,90,0.0,1.0,67,0.00,,,0.00,37,weatherlink.com 1.10,2013-06-12 23:09:00,
2013-06-12 19:24:00,67.0,56.0,29.83,ESE,105,0.0,1.0,67,0.00,,,0.00,12,weatherlink.com 1.10,2013-06-12 23:24:00,
2013-06-12 19:39:00,65.8,57.0,29.83,ESE,105,0.0,1.0,73,0.00,,,0.00,21,weatherlink.com 1.10,2013-06-12 23:39:00,
2013-06-12 19:54:00,64.8,57.0,29.84,ESE,105,0.0,0.0,76,0.00,,,0.00,9,weatherlink.com 1.10,2013-06-12 23:54:00,
2013-06-12 20:09:00,64.0,57.0,29.84,ESE,105,0.0,1.0,78,0.00,,,0.00,5,weatherlink.com 1.10,2013-06-13 00:09:00,
2013-06-12 20:24:00,63.4,56.0,29.85,ESE,105,0.0,1.0,78,0.00,,,0.00,0,weatherlink.com 1.10,2013-06-13 00:24:00,
2013-06-12 20:39:00,62.5,56.0,29.85,ESE,105,0.0,1.0,79,0.00,,,0.00,0,weatherlink.com 1.10,2013-06-13 00:39:00,
2013-06-12 20:54:00,61.5,56.0,29.86,ESE,105,0.0,0.0,81,0.00,,,0.00,0,weatherlink.com 1.10,2013-06-13 00:54:00,
2013-06-12 21:09:00,60.5,55.0,29.86,ESE,105,0.0,0.0,82,0.00,,,0.00,0,weatherlink.com 1.10,2013-06-13 01:09:00,
2013-06-12 21:24:00,59.8,55.0,29.87,ESE,105,0.0,0.0,84,0.00,,,0.00,0,weatherlink.com 1.10,2013-06-13 01:24:00,
2013-06-12 21:39:00,59.1,55.0,29.88,ESE,105,0.0,0.0,85,0.00,,,0.00,0,weatherlink.com 1.10,2013-06-13 01:39:00,
2013-06-12 21:54:00,58.5,54.0,29.88,ESE,105,0.0,0.0,86,0.00,,,0.00,0,weatherlink.com 1.10,2013-06-13 01:54:00,
2013-06-12 22:09:00,57.9,54.0,29.88,ESE,105,0.0,0.0,87,0.00,,,0.00,0,weatherlink.com 1.10,2013-06-13 02:09:00,
2013-06-12 22:24:00,57.5,54.0,29.88,ESE,105,0.0,1.0,87,0.00,,,0.00,0,weatherlink.com 1.10,2013-06-13 02:24:00,
2013-06-12 22:39:00,57.6,54.0,29.88,ESE,105,0.0,1.0,87,0.00,,,0.00,0,weatherlink.com 1.10,2013-06-13 02:39:00,
2013-06-12 22:54:00,57.5,53.0,29.88,ESE,105,0.0,1.0,85,0.00,,,0.00,0,weatherlink.com 1.10,2013-06-13 02:54:00,
2013-06-12 23:09:00,57.3,53.0,29.88,ESE,105,0.0,1.0,85,0.00,,,0.00,0,weatherlink.com 1.10,2013-06-13 03:09:00,
2013-06-12 23:24:00,57.2,53.0,29.88,ESE,105,0.0,1.0,87,0.00,,,0.00,0,weatherlink.com 1.10,2013-06-13 03:24:00,
2013-06-12 23:39:00,56.9,54.0,29.87,ESE,105,0.0,1.0,89,0.00,,,0.00,0,weatherlink.com 1.10,2013-06-13 03:39:00,
2013-06-12 23:54:00,56.8,52.0,29.87,ESE,105,0.0,2.0,85,0.00,,,0.00,0,weatherlink.com 1.10,2013-06-13 03:54:00,